Regional Weather Roundup
Issued by NWS

Home | Current Version | Previous Version | Text Only | Print | Product List | Glossary Off
Versions: 1 2 3 4 5 6 7 8 9 10 11 12 13 14 15 16 17 18 19 20 21 22 23 24 25 26 27 28 29 30 31 32 33 34 35 36 37 38 39 40 41 42 43 44 45 46 47 48 49 50

000
ASUS43 KBIS 291602
RWRND

NORTH DAKOTA REGIONAL WEATHER ROUNDUP
NATIONAL WEATHER SERVICE BISMARCK ND
1100 AM CDT FRI JUL 29 2016

NOTE: "FAIR" INDICATES FEW OR NO CLOUDS BELOW 12,000 FEET WITH NO
SIGNIFICANT WEATHER AND/OR OBSTRUCTIONS TO VISIBILITY.


NDZ001>003-009>011-017-291700-
NORTHWEST NORTH DAKOTA

CITY           SKY/WX    TMP DP  RH WIND       PRES   REMARKS
WILLISTON      SUNNY     72  59  63 VRB3      30.08F
MINOT          PTSUNNY   76  60  57 SE8       30.08F
MINOT AFB      MOSUNNY   72  60  67 SE8       30.07F
$$

NDZ018>021-031>035-040>046-291700-
SOUTHWEST NORTH DAKOTA

CITY           SKY/WX    TMP DP  RH WIND       PRES   REMARKS
BISMARCK       SUNNY     75  58  55 CALM      30.09S
DICKINSON      PTSUNNY   69  58  67 S9        30.09S
GARRISON         N/A     72  62  71 CALM      30.08F
HETTINGER ARPT PTSUNNY   73  55  53 S9        30.12S
$$

NDZ004>008-012>016-024-026-027-054-291700-
NORTHEAST NORTH DAKOTA

CITY           SKY/WX    TMP DP  RH WIND       PRES   REMARKS
GRAND FORKS    PTSUNNY   73  57  57 NE5       30.08F
GRND FRKS AFB  CLOUDY    71  56  58 N5        30.09F
DEVILS LAKE    SUNNY     71  58  63 CALM      30.10F
$$

NDZ022-023-025-028>030-036>039-047>053-291700-
SOUTHEAST NORTH DAKOTA

CITY           SKY/WX    TMP DP  RH WIND       PRES   REMARKS
FARGO          SUNNY     74  56  53 VRB3      30.08S
JAMESTOWN      PTSUNNY   72  60  66 SE6       30.10S
$$




USA.gov is the U.S. government's official web portal to all federal, state and local government web resources and services.